Showing default

GAOFEN 1-03, 43260

Orbit data source: Space-Track

GAOFEN 1-03, 43260 is a payload satellite owned by GGKGJ (CN) in SSO that was launched on Sat, 31 Mar 2018 UTC via a CHANG ZHENG 4C launch vehicle from the Taiyaun Space Center, China (TSC). Payload-class satellites include a variety of spacecraft equipped with specific instruments for various scientific and technological missions. These include communications satellites like Starlink; space stations such as the ISS; scientific satellites like the Hubble; Earth observation satellites from companies like Planet Labs, Umbra, and HawkEye 360; GPS; miniature CubeSats for education and research; and military/defense satellites.

Loading next visibility...
Identifier
43260, 2018-031B
Orbit
SSO
Last TLE update
10 hours ago
Origin
Manufacturer
DFH
Mission
Operational Civil Imaging
Bus & Motor
CAST-2000, AOCS
Mass
805 kg wet, ~700 kg dry
Launch date (UTC)
2018-03-31 (7 years ago)
Launch vehicle
CHANG ZHENG 4C
Launch site
Taiyaun Space Center, China (TSC)
Object type
Payload
Rocket body
Debris
Shape & HBR
Box + 2 Pan, 4 m
Radar Cross Section
4.991 m², Large (>1 m²)

Expand to show TLE details & history

TLE from 10 hours ago
0 GAOFEN 1-03
1 43260U 18031B   25191.58118910  .00000521  00000-0  81590-4 0  9994
2 43260  97.7706 251.6292 0006848  61.6839 298.5062 14.76615355392288
Epoch: 2025-07-10T13:56Z
TLE epoch observation values (Epoch: 2025-07-10T13:56:54.738Z)
Latitude
0.00004°
Longitude
113.6557°
Altitude
640.757 km
Speed
7.539 km/s
True Right ascension
16h 46m 31s
True Declination
0° 00' 00"
Sunlit
Object was in full shadow at epoch
Visualization orbit readout
Latitude
11.88773°
Longitude
112.41199°
Altitude
639.086 km
Speed
7.541 km/s
Apparent Right ascension
19h 27m 49s
Apparent Declination
-20° 47' 50"
Sunlit
Object is in full shadow
Visualization observer readout
Local Sidereal Time
12:01:44
Azimuth
93.439° ESE
Elevation
-29.398°
Doppler factor
1
Orbital elements
Apogee altitude
641.872 km
Perigee altitude
632.264 km
Semi-major axis
7,015.205 km
Eccentricity
0.00068
Inclination
97.7706°
RAAN
251.6292°
Arg. of periapsis
61.6839°
True anomaly
Unknown
Mean anomaly
298.5062°
Eccentric anomaly
Unknown
Mean motion
3.69388 °/min
Orbital period
97.46 mins
BSTAR
0.00008159
Loading maneuver chart data...
Loading SW <> Apogee altitude chart data...
Loading historical data...
Loading historical data...
Loading historical data...
Loading historical data...
Loading historical data...
Loading historical data...
Loading historical data...

GAOFEN 1-03 Visibility forecast

Observer location: undefined°, undefined°

Span
Click to sort rows by Start time (UTC) header in descending order
Start Az.
Max El. time (UTC)
Max El. Az.
Max El.
End time (UTC)
End Az.
6 mins2025-07-11 03:06:37.192Z112.03° ESE2025-07-11 03:09:37.192Z61.867° ENE20.559°2025-07-11 03:12:37.192Z17.964° NNE
5 mins2025-07-11 04:43:37.192Z217.626° SW2025-07-11 04:45:37.192Z261.876° W27.78°2025-07-11 04:48:37.192Z319.387° NNW
6 mins2025-07-11 16:33:37.192Z32.47° NE2025-07-11 16:36:37.192Z120.784° SE36.897°2025-07-11 16:39:37.192Z172.359° S
|